Location: Macksville High School
(37.9611°N, 99.9654°W)
Time: 18:46:13
(UTC+00:00)

PAYLOAD B - Pass Details

Date: 27 February 2020
Orbit: 848 x 872 km, 99.1° (Epoch: 03 April)

Event Time Altitude Azimuth Distance (km) Brightness Sun altitude
Rises 12:29:29 0° 10° (N) 3,448 7.5 -9.7°
Reaches altitude 10° 12:31:53 10° 8° (N) 2,503 6.7 -9.3°
Maximum altitude 12:37:22 65° 288° (WNW) 938 4.2 -8.2°
Drops below altitude 10° 12:42:48 10° 207° (SSW) 2,473 6.4 -7.1°
Sets 12:45:10 0° 204° (SSW) 3,403 7.2 -6.6°
